Probability
0 0 0 0 0 0 0 0 0 0 0 0 0 1 2 4 7 13 22 31 38 41 42 47 52 53 58 63 60 51 47 47 44 37 31 26 19 14 11 11 14 17 17 16
0 0 0 0 0 0 0 0 0 0 0 0 1 2 3 5 6 12 21 29 35 40 45 52 56 57 61 65 61 55 52 51 47 40 34 30 25 20 15 15 18 20 19 18
0 0 0 0 0 0 0 0 0 0 0 0 1 2 3 5 6 9 17 23 29 38 49 56 59 61 64 66 65 61 60 58 54 47 39 35 35 30 22 21 25 24 22 20
0 0 0 0 0 0 0 0 0 0 0 0 1 2 3 5 6 7 11 16 23 35 50 57 57 59 62 65 67 68 67 65 60 54 44 39 39 37 30 28 29 27 23 20
0 0 0 0 0 0 0 0 0 0 0 0 0 1 3 4 4 6 7 10 18 31 44 51 52 53 56 62 68 71 72 71 66 59 50 43 39 38 35 33 31 27 23 20
0 0 0 0 0 0 0 0 0 0 0 0 0 1 2 2 2 4 6 9 15 24 34 43 47 49 51 56 65 73 77 76 69 62 56 50 44 41 39 36 32 26 22 20
0 0 0 0 0 0 0 0 0 0 0 0 0 0 0 0 0 2 6 11 16 20 26 37 45 49 51 52 60 73 80 79 72 66 61 57 50 45 43 40 33 26 22 21
0 0 0 0 0 0 0 0 0 0 0 0 0 0 0 1 1 3 8 12 16 18 23 32 44 50 51 51 59 73 80 79 75 70 65 59 52 46 43 41 35 27 22 20
0 0 0 0 0 0 0 0 0 0 0 0 0 0 1 2 2 4 8 12 15 18 24 33 43 50 52 54 63 73 77 76 75 72 66 58 51 47 42 38 34 28 22 19
0 0 0 0 0 0 0 0 0 0 0 0 0 0 2 4 4 4 6 10 14 19 26 35 44 51 55 59 67 74 75 73 72 70 64 57 53 50 44 37 33 29 25 22
0 0 0 0 0 0 0 0 0 0 0 0 0 0 2 4 5 5 6 9 16 22 28 36 46 54 59 63 69 75 76 74 73 70 64 59 56 53 49 43 38 35 30 27
0 0 0 0 0 0 0 0 0 0 0 0 0 0 2 4 8 10 12 16 23 29 33 39 47 55 62 66 71 76 76 76 74 71 67 62 59 57 55 51 47 43 37 34
0 0 0 0 0 0 0 0 0 0 0 0 0 1 3 7 11 15 19 25 32 38 41 48 56 63 68 73 77 78 76 75 74 72 69 67 64 63 62 60 56 50 43 39
0 0 0 0 0 0 0 0 0 0 0 0 1 2 6 10 14 18 24 30 38 45 50 58 69 77 81 84 85 82 77 75 74 73 72 71 69 66 65 64 59 55 48 43
0 0 0 0 0 0 0 0 0 0 0 0 2 4 8 13 17 21 28 36 43 52 59 66 78 88 91 92 92 87 82 79 77 76 74 72 69 66 64 62 59 57 52 46
0 0 0 0 0 0 0 0 0 0 0 1 3 6 11 16 20 24 32 41 51 61 68 75 84 91 93 93 91 88 86 84 81 78 75 71 69 67 64 62 60 58 54 50
4 5 3 1 0 0 0 0 0 1 1 3 5 10 16 22 27 33 40 47 55 66 75 83 88 90 90 90 88 86 86 86 84 80 74 71 70 70 67 65 62 61 59 58
9 12 8 2 0 0 0 0 1 2 3 6 10 16 24 30 37 45 50 53 59 69 79 85 88 89 90 89 88 86 85 86 85 81 76 72 71 72 70 67 64 64 65 64
11 15 11 2 0 0 0 1 2 3 6 10 16 24 30 34 41 51 57 62 68 75 80 83 86 88 91 92 91 88 86 86 86 83 79 75 73 70 68 65 64 65 66 64
7 10 7 2 1 0 1 3 4 6 12 19 25 32 38 42 49 60 69 74 78 81 81 82 84 87 90 92 92 90 88 87 86 83 80 78 73 67 63 63 63 65 63 61
2 4 3 2 1 2 5 9 13 21 31 36 39 45 51 59 68 76 83 84 82 82 82 82 84 87 88 89 90 89 87 86 84 81 79 78 73 65 62 63 64 64 61 58
0 1 2 4 7 15 23 28 36 49 55 55 56 61 67 73 80 85 88 87 83 80 81 82 84 86 86 86 86 84 82 81 80 78 79 77 72 65 63 62 63 62 59 56
4 5 9 14 23 36 44 48 56 65 68 66 67 72 76 79 81 84 86 86 83 79 79 80 81 82 83 82 81 79 76 76 77 77 78 76 70 65 62 60 58 56 53 51
9 12 19 28 36 45 50 52 56 61 65 66 69 73 76 77 78 80 83 84 83 80 79 78 77 75 74 74 74 74 72 73 75 76 75 71 64 59 56 53 47 43 40 39
13 17 27 37 42 45 48 47 47 52 57 60 63 67 69 68 69 72 76 80 80 78 76 72 68 65 65 66 66 67 69 71 72 72 68 61 55 51 47 40 31 25 23 22
13 19 31 40 43 47 49 46 43 47 52 54 58 62 62 60 61 64 68 74 76 74 70 65 59 58 60 60 60 62 66 69 70 67 61 55 51 48 42 32 19 12 10 10
Wind_Speed
12 12 12 11 9 6 7 7 5 2 3 3 4 6 9 11 11 11 12 12 12 12 12 11 11 11 10 9 8 7 7 6 5 4 4 3 3 3 3 3 4 4 4 4
12 15 13 10 7 6 8 8 8 3 3 3 4 4 8 11 11 11 12 13 13 13 13 12 11 11 11 10 8 8 7 7 6 4 3 3 3 2 3 2 3 4 4 3
16 11 8 10 10 9 10 9 8 5 3 6 5 4 5 8 11 11 12 13 14 15 14 13 12 11 11 10 10 8 8 7 7 6 4 3 2 1 1 2 2 3 4 4
16 14 10 11 11 11 10 8 7 8 8 7 7 4 6 8 10 12 12 13 14 14 15 14 13 12 11 11 10 8 8 7 7 6 5 5 4 3 3 2 2 3 3 3
14 14 13 13 12 11 10 8 7 9 10 10 9 6 6 10 9 11 13 14 14 14 15 14 13 12 11 11 11 9 8 7 6 6 5 4 4 3 2 2 2 2 2 3
16 14 12 12 12 12 10 10 9 10 10 11 11 8 5 7 8 9 12 12 13 13 14 14 13 11 10 10 10 10 9 7 7 6 5 5 4 3 2 3 2 2 2 3
16 16 13 12 13 13 12 10 8 9 9 9 10 7 4 7 9 9 10 12 12 13 14 14 13 12 10 10 10 10 10 8 8 7 6 5 4 4 4 3 3 3 2 2
16 16 16 14 15 12 13 14 11 9 8 5 5 6 4 8 7 7 9 11 12 13 13 14 13 12 10 10 10 10 10 9 8 7 6 4 4 3 3 3 2 2 2 1
14 15 15 16 16 16 15 14 15 14 14 10 7 7 7 8 9 8 9 11 11 12 13 15 14 13 12 11 10 10 10 9 9 8 6 5 4 3 2 2 3 2 2 2
16 14 13 12 13 16 17 14 10 11 10 11 8 8 6 11 11 10 10 11 10 11 10 12 13 13 12 11 9 9 9 8 8 8 7 6 5 4 3 2 2 2 1 1
16 14 14 13 14 15 15 15 12 9 9 10 8 3 4 6 7 8 9 10 10 11 12 10 10 12 12 12 11 10 10 9 8 7 6 5 6 5 5 3 3 2 2 2
12 12 13 15 14 15 16 16 15 10 8 10 10 4 5 8 8 8 7 9 8 9 10 12 11 10 11 12 12 11 10 10 9 7 6 6 5 5 4 4 3 3 3 3
7 9 12 14 14 15 16 15 15 13 10 11 12 5 4 4 6 7 5 7 7 8 8 10 11 11 10 10 11 11 11 10 10 9 7 6 6 5 4 3 3 2 2 2
6 10 13 16 12 12 15 17 16 16 13 13 13 9 5 5 3 4 6 6 7 7 7 8 8 8 8 8 8 9 10 10 10 9 8 7 6 5 4 3 3 3 2 2
8 12 15 18 19 17 15 16 18 17 16 15 13 11 7 6 6 5 5 6 6 6 7 6 7 7 7 7 7 7 7 8 8 8 8 7 6 5 4 4 3 3 2 2
7 11 14 17 19 20 19 17 17 17 16 17 14 10 5 4 4 4 4 5 6 5 5 5 6 7 8 8 7 7 6 7 7 7 7 7 6 5 5 4 4 3 2 1
8 8 12 15 17 20 22 18 17 16 16 16 14 9 4 3 4 5 5 3 4 4 4 4 4 5 5 7 8 7 6 7 7 7 6 7 6 6 5 5 4 3 2 2
8 7 8 13 15 21 17 16 16 15 13 12 9 4 1 2 5 6 5 2 2 3 3 2 3 3 4 5 7 7 7 7 7 7 6 6 6 5 5 4 3 3 2 2
10 8 10 12 16 19 17 14 14 13 10 8 5 3 2 2 4 6 4 3 4 3 3 2 1 3 3 3 5 6 7 7 7 6 5 5 5 5 5 4 3 3 3 2
13 9 10 12 16 17 12 10 10 10 9 4 3 2 2 2 2 3 5 5 5 4 3 3 2 3 3 3 4 6 6 5 5 5 4 4 4 4 4 3 3 2 2 2
13 13 14 16 17 15 9 9 9 11 4 1 2 1 1 2 4 5 6 6 5 5 3 4 4 3 4 3 4 5 4 4 4 4 4 4 4 4 4 3 2 2 2 2
13 13 13 14 17 13 5 6 4 3 5 4 4 5 5 6 6 6 6 5 5 4 4 4 4 5 5 4 4 4 4 4 4 5 4 4 3 3 3 3 2 2 1 1
10 9 7 7 6 3 6 6 5 5 4 5 5 6 5 5 5 5 4 5 4 4 4 4 5 6 6 5 5 5 3 3 4 4 4 4 3 2 3 3 3 2 1 1
7 6 6 4 2 1 2 3 4 5 5 5 4 4 4 4 4 4 4 4 4 5 5 5 6 6 5 5 5 5 5 4 3 4 4 4 3 3 2 1 1 1 1 1
8 7 6 4 2 1 0 2 3 4 5 5 5 5 5 5 4 4 5 4 4 4 5 4 5 5 5 5 5 5 4 3 3 3 2 3 3 4 3 3 3 2 3 2
7 7 6 3 1 1 1 1 1 2 3 4 4 4 5 5 4 4 3 3 4 4 4 4 4 4 5 5 5 4 3 3 2 2 2 1 2 3 3 5 4 7 5 6
Wind_Direction
232 239 244 244 247 268 286 294 292 236 148 227 190 166 166 166 172 168 168 166 168 171 172 167 169 166 165 162 165 169 178 174 179 185 184 190 200 206 202 206 187 189 204 195
240 236 248 264 270 269 265 266 265 239 158 255 248 200 174 169 176 172 172 172 173 172 170 168 173 173 171 169 170 172 178 179 186 188 187 191 195 212 205 208 183 196 203 200
239 242 233 247 254 255 255 259 275 281 233 233 248 249 186 179 171 172 175 175 175 176 172 171 177 178 175 173 177 182 180 180 185 185 187 190 174 197 221 202 194 208 209 214
242 245 244 246 245 250 256 259 266 274 274 268 247 229 193 197 184 176 176 177 176 175 171 172 177 180 180 177 176 173 174 179 177 181 194 196 189 197 204 197 201 211 217 221
242 241 238 242 244 252 264 279 273 271 271 273 257 250 182 191 191 179 178 180 176 172 169 171 175 177 179 175 172 171 168 174 174 183 190 192 203 203 194 181 195 207 214 220
255 253 241 241 243 249 260 267 263 265 265 260 257 256 178 186 178 184 180 173 167 166 165 166 168 168 172 170 167 166 164 170 174 185 193 192 202 200 199 193 191 204 212 212
241 246 241 241 244 235 235 245 245 239 242 250 250 244 170 162 165 176 163 158 160 163 165 163 166 166 168 168 166 162 161 169 177 186 193 195 199 203 207 210 204 211 221 199
228 229 226 226 234 239 228 236 243 254 251 250 254 249 188 152 150 150 150 150 157 164 166 163 165 165 164 169 168 162 162 169 178 184 186 188 193 209 198 204 222 221 230 214
244 237 219 215 222 235 237 236 248 257 264 263 218 217 168 156 153 161 159 151 163 165 163 161 165 165 165 170 168 163 159 167 175 180 176 182 188 198 195 195 206 215 218 232
255 265 247 216 215 226 242 246 252 258 271 278 253 218 198 162 162 166 168 159 156 153 159 161 162 163 164 167 164 159 158 164 171 174 178 179 180 184 190 211 207 209 233 257
248 258 252 233 219 224 226 239 252 267 271 271 273 279 117 150 155 161 167 153 159 161 165 157 160 161 163 165 163 163 158 162 169 173 174 162 168 180 185 191 203 203 222 235
240 250 254 243 236 232 233 234 234 240 252 273 278 258 163 165 161 164 162 148 154 159 155 152 159 164 167 168 165 164 164 169 171 168 166 166 168 173 184 183 185 194 207 223
255 253 250 244 236 227 233 235 239 241 243 250 259 250 170 156 151 145 142 137 144 146 148 151 160 165 167 167 166 165 170 173 171 167 167 167 174 177 180 178 179 192 207 227
262 253 254 249 242 232 228 234 239 239 240 240 242 234 195 156 145 150 141 140 149 149 149 154 154 155 158 159 159 164 173 171 169 166 169 170 175 174 178 175 177 186 198 223
259 252 256 264 268 261 249 236 236 237 243 252 252 239 209 168 168 156 147 146 151 151 153 155 150 150 155 157 159 165 169 166 164 162 167 168 172 174 175 171 174 176 187 208
254 262 262 260 262 263 263 252 240 241 241 246 255 258 241 149 147 133 133 147 144 150 157 156 152 154 162 164 166 167 168 160 154 162 167 164 169 169 170 170 169 175 175 168
245 260 261 259 257 259 253 252 250 242 243 247 249 253 221 172 131 130 126 141 141 149 146 150 156 160 164 170 168 169 167 158 160 166 167 167 169 169 171 173 170 174 169 169
257 258 254 256 258 251 252 255 258 255 251 247 249 250 198 115 108 102 98 109 100 117 129 135 157 153 163 174 169 166 163 161 166 171 172 167 167 164 162 165 168 167 170 177
240 240 250 252 250 251 255 253 253 255 253 253 245 225 177 200 145 113 98 100 80 76 86 95 126 143 143 153 154 152 160 163 166 166 166 165 163 161 161 167 172 171 178 177
235 229 239 248 252 250 250 257 265 258 239 256 265 208 196 210 212 117 89 87 83 59 59 72 71 83 109 109 131 144 152 151 157 155 152 144 143 147 156 168 175 171 176 177
229 228 231 242 251 254 280 286 271 249 251 314 309 26 86 35 53 70 76 78 84 83 68 75 73 70 83 92 111 135 141 144 139 130 130 137 144 155 156 153 159 166 178 178
232 230 229 238 245 248 315 299 298 356 19 31 40 57 64 77 88 83 79 79 77 80 77 84 80 74 77 78 93 110 119 121 125 128 130 138 144 156 142 142 152 154 159 178
250 250 246 244 250 357 12 17 31 33 39 40 47 64 79 85 90 89 83 81 74 70 71 79 87 83 79 77 84 94 97 105 116 120 126 127 125 113 125 152 154 159 168 205
262 270 272 273 236 42 42 24 23 28 34 37 47 67 84 89 80 75 73 75 76 73 71 75 90 91 85 81 84 93 88 89 108 126 130 135 137 131 107 87 87 87 49 347
292 286 263 258 252 237 31 32 32 26 30 34 34 46 65 85 75 68 67 62 73 85 84 81 90 99 94 90 89 87 91 102 105 114 134 156 150 138 123 92 52 62 65 40
291 291 281 257 287 285 217 159 126 58 40 35 38 45 56 71 76 70 74 75 71 77 83 88 92 100 101 98 90 86 92 105 116 134 149 172 153 142 141 126 99 53 69 66